TimeCDT,TemperatureF,Dew PointF,Humidity,Sea Level PressureIn,VisibilityMPH,Wind Direction,Wind SpeedMPH,Gust SpeedMPH,PrecipitationIn,Events,Conditions,WindDirDegrees,DateUTC
12:41 AM,60.8,59.0,94,29.63,8.0,WSW,5.8,-,N/A,,Overcast,250,2012-10-02 05:41:00
12:53 AM,61.0,59.0,93,29.62,6.0,WSW,4.6,-,N/A,,Overcast,250,2012-10-02 05:53:00
1:03 AM,60.8,59.0,94,29.63,6.0,WSW,3.5,-,N/A,,Overcast,240,2012-10-02 06:03:00
2:53 AM,60.1,57.9,93,29.64,7.0,Calm,Calm,-,N/A,,Overcast,0,2012-10-02 07:53:00
3:21 AM,60.8,57.2,88,29.66,10.0,WSW,4.6,-,N/A,,Overcast,250,2012-10-02 08:21:00
3:53 AM,59.0,57.0,93,29.66,8.0,WSW,3.5,-,N/A,,Overcast,250,2012-10-02 08:53:00
4:45 AM,59.0,57.2,94,29.67,5.0,Calm,Calm,-,N/A,,Overcast,0,2012-10-02 09:45:00
4:53 AM,59.0,57.0,93,29.66,6.0,SW,3.5,-,N/A,,Overcast,230,2012-10-02 09:53:00
5:20 AM,59.0,57.2,94,29.67,8.0,SW,4.6,-,N/A,,Overcast,230,2012-10-02 10:20:00
5:53 AM,59.0,55.9,90,29.67,10.0,SSW,5.8,-,N/A,,Overcast,210,2012-10-02 10:53:00
6:53 AM,60.1,55.9,86,29.69,8.0,SSW,4.6,-,N/A,,Overcast,210,2012-10-02 11:53:00
7:53 AM,60.1,55.9,86,29.72,7.0,WSW,3.5,-,N/A,,Overcast,240,2012-10-02 12:53:00
8:53 AM,60.1,55.9,86,29.74,6.0,WSW,5.8,-,N/A,,Overcast,250,2012-10-02 13:53:00
9:21 AM,59.0,57.2,94,29.75,2.5,WSW,5.8,-,0.00,Rain,Light Rain,250,2012-10-02 14:21:00
9:29 AM,60.8,57.2,88,29.76,3.0,West,5.8,-,0.00,,Overcast,260,2012-10-02 14:29:00
9:50 AM,60.8,57.2,88,29.77,7.0,WSW,4.6,-,0.00,,Overcast,240,2012-10-02 14:50:00
9:53 AM,61.0,57.0,87,29.76,6.0,WSW,5.8,-,0.00,,Overcast,250,2012-10-02 14:53:00
10:11 AM,60.8,57.2,88,29.77,4.0,WSW,4.6,-,N/A,,Overcast,250,2012-10-02 15:11:00
10:23 AM,60.8,57.2,88,29.78,8.0,WSW,4.6,-,N/A,,Overcast,250,2012-10-02 15:23:00
10:53 AM,61.0,57.0,87,29.78,10.0,SW,5.8,-,N/A,,Overcast,220,2012-10-02 15:53:00
11:05 AM,62.6,57.2,82,29.79,10.0,WSW,4.6,-,N/A,,Overcast,240,2012-10-02 16:05:00
11:28 AM,62.6,57.2,82,29.79,10.0,SW,5.8,-,N/A,,Overcast,220,2012-10-02 16:28:00
11:53 AM,62.1,55.9,80,29.78,10.0,West,6.9,-,0.01,,Overcast,260,2012-10-02 16:53:00
12:24 PM,64.4,55.4,73,29.79,10.0,SSW,8.1,-,N/A,,Overcast,200,2012-10-02 17:24:00
12:53 PM,63.0,55.9,78,29.78,10.0,SW,5.8,-,N/A,,Overcast,220,2012-10-02 17:53:00
1:11 PM,64.4,55.4,73,29.79,10.0,SSW,8.1,-,N/A,,Overcast,210,2012-10-02 18:11:00
1:53 PM,64.9,55.9,73,29.78,10.0,SW,8.1,-,N/A,,Overcast,220,2012-10-02 18:53:00
2:53 PM,64.9,55.9,73,29.79,10.0,SW,8.1,-,N/A,,Overcast,230,2012-10-02 19:53:00
3:15 PM,64.4,55.4,73,29.81,10.0,WSW,10.4,-,N/A,,Overcast,240,2012-10-02 20:15:00
3:23 PM,62.6,55.4,77,29.82,10.0,WSW,9.2,-,N/A,,Overcast,250,2012-10-02 20:23:00
3:38 PM,62.6,55.4,77,29.82,10.0,WSW,8.1,-,N/A,,Overcast,250,2012-10-02 20:38:00
3:53 PM,63.0,55.0,75,29.82,10.0,WSW,9.2,-,N/A,,Overcast,250,2012-10-02 20:53:00
4:53 PM,61.0,55.9,83,29.85,5.0,SW,6.9,-,0.00,Rain,Light Rain,230,2012-10-02 21:53:00
5:12 PM,60.8,57.2,88,29.86,4.0,WSW,5.8,-,0.00,Rain,Light Rain,240,2012-10-02 22:12:00
5:37 PM,59.0,55.4,88,29.88,6.0,SW,8.1,-,0.00,,Overcast,230,2012-10-02 22:37:00
5:53 PM,59.0,55.9,90,29.88,5.0,SW,8.1,-,0.00,,Overcast,230,2012-10-02 22:53:00
6:53 PM,59.0,55.9,90,29.89,5.0,SW,6.9,-,N/A,,Overcast,220,2012-10-02 23:53:00
7:42 PM,59.0,55.4,88,29.91,6.0,SW,10.4,-,N/A,,Overcast,230,2012-10-03 00:42:00
7:53 PM,59.0,55.0,87,29.91,8.0,SW,8.1,-,N/A,,Overcast,220,2012-10-03 00:53:00
8:00 PM,59.0,55.4,88,29.92,8.0,SW,8.1,-,N/A,,Overcast,220,2012-10-03 01:00:00
8:07 PM,59.0,55.4,88,29.92,9.0,SW,9.2,-,N/A,,Overcast,220,2012-10-03 01:07:00
8:33 PM,59.0,55.4,88,29.93,8.0,SW,6.9,-,N/A,,Overcast,230,2012-10-03 01:33:00
8:53 PM,59.0,55.0,87,29.93,9.0,SW,5.8,-,N/A,,Overcast,220,2012-10-03 01:53:00
10:53 PM,57.9,54.0,87,29.96,9.0,SSW,5.8,-,N/A,,Mostly Cloudy,210,2012-10-03 03:53:00
11:53 PM,57.0,53.1,87,29.96,7.0,Calm,Calm,-,N/A,,Clear,0,2012-10-03 04:53:00